Location: Sungai Kitah
(2.7500°N, 113.8333°E)
Time: 08:37:02
(UTC+00:00)

Daily predictions for brighter satellites

Satellite Brightness Start Highest point End
(mag) Time Altitude Azimuth Time Altitude Azimuth Time Altitude Azimuth
Sea Lan Dem Rocket 2.1 12:06:39 10° W 12:10:11 73° S 12:10:15 73° SSE
deb Chang Zheng 4 3.8 12:13:08 55° N 12:13:08 55° N 12:16:24 10° N
Atlas Centaur 2 3.7 12:14:58 10° WSW 12:16:07 13° SW 12:16:07 13° SW
Meteor 1-20 Rocket 4.0 12:20:33 10° N 12:26:03 86° W 12:26:08 86° SW
ATLAS 5 CENTAUR R/B 3.9 12:21:42 10° WNW 12:32:02 22° NNW 12:35:34 14° NNE
Cosmos 2344 3.7 12:24:13 10° SSW 12:34:23 88° WNW 12:42:07 10° NNE
USA 234 3.4 12:34:18 55° S 12:35:30 66° SW 12:41:59 10° NW
IRAS Rocket 4.3 12:30:21 10° N 12:35:36 75° NW 12:35:36 75° NW
Cosmos 2233 Rocket 4.2 12:36:21 44° SSW 12:38:21 70° W 12:44:37 10° N
ATLAS 5 CENTAUR R/B 2.8 12:44:34 10° NNW 12:50:28 69° N 12:50:28 69° N
ARIANE 5 R/B 3.6 12:52:32 10° W 13:11:45 53° WSW 13:11:45 53° WSW
BLOCK DM-SL R/B 4.1 19:00:56 64° ESE 19:00:56 64° ESE 19:50:14 10° E
BLOCK DM-SL R/B 4.1 19:00:55 64° ESE 19:00:55 64° ESE 19:50:14 10° E
CZ-3C R/B 4.5 19:37:16 13° NE 19:37:16 13° NE 19:38:02 10° NE
NOSS 3-1 (A) 4.2 19:40:38 10° NNW 19:49:37 83° WSW 19:58:49 10° SSE
ARIANE 5 DEB (SYLDA) 3.6 19:55:10 46° ESE 19:55:10 46° ESE 19:58:27 10° E
ARIANE 5 R/B 4.4 19:54:06 10° N 19:55:41 21° N 19:55:41 21° N
SWIFT 4.3 20:03:07 27° ENE 20:03:07 27° ENE 20:05:26 10° E
MOS 1-B Rocket 3.9 20:12:55 26° SSE 20:16:44 89° W 20:22:30 10° NNW
Cosmos 1943 Rocket 2.6 20:11:27 10° N 20:17:00 62° ENE 20:22:32 10° SSE
Lacrosse 4 Rocket 2.1 20:19:19 56° NE 20:19:19 56° NE 20:22:53 10° NNE
CZ-2C R/B 2.9 20:21:10 26° E 20:21:10 26° E 20:23:07 10° ENE
In-Cosmos 22 Rocket 4.2 20:19:19 56° SSE 20:20:33 79° E 20:26:16 10° N
ATLAS 3B CENTAUR R/B 2.7 20:23:24 36° NNW 20:23:24 36° NNW 20:29:20 10° NE
Spot 4 Rocket 3.9 20:20:04 10° N 20:25:00 74° WNW 20:25:00 74° WNW
DELTA 2 R/B (1) 4.2 20:24:55 41° SSE 20:25:55 46° SE 20:31:13 10° ENE
Okean 1-7 Rocket 3.7 20:26:38 68° N 20:26:38 68° N 20:30:30 10° N
Nadezhda 3 Rocket 4.4 20:22:26 14° S 20:27:53 64° E 20:34:08 10° NNE
Cosmos 1484 Rocket 4.4 20:28:40 10° N 20:30:25 25° NNW 20:30:25 25° NNW
Meteor 2-20 4.4 20:30:58 21° S 20:35:15 82° E 20:41:24 10° N
Meteor 2-1 Rocket 4.0 20:35:36 10° N 20:41:13 75° W 20:46:44 10° S
Cosmos 1825 2.2 20:42:25 62° NNW 20:42:25 62° NNW 20:45:35 10° N
Cosmos 2218 Rocket 3.9 20:39:56 10° N 20:46:13 87° W 20:52:36 10° S
Cosmos 614 Rocket 3.8 20:41:08 10° NNW 20:46:19 75° WSW 20:51:31 10° S
SL-08 R/B 3.9 20:43:08 10° SSE 20:47:41 57° ENE 20:52:11 10° N
ARIANE 5 DEB (SYLDA) 4.3 20:44:16 31° WSW 20:49:02 62° S 20:53:38 10° ESE
YAOGAN 6 2.5 20:46:31 10° N 20:49:58 62° WNW 20:49:58 62° WNW
Cosmos 1452 Rocket 3.4 20:50:26 22° SSW 20:53:54 88° WNW 20:59:10 10° NNE
CZ-4B R/B 3.6 20:49:10 10° N 20:54:18 58° WNW 20:57:00 28° SW
Chandra Rocket (1) 0.9 20:58:30 66° SSW 20:58:30 66° SSW 21:00:53 10° SE
Cosmos 2098 4.4 20:57:23 10° N 21:00:25 77° E 21:04:03 10° S
Cosmos 1602 Rocket 3.6 21:02:08 24° SSW 21:04:40 55° W 21:09:02 10° N
ATLAS 5 CENTAUR R/B 4.1 20:58:06 21° SW 21:05:07 37° S 21:47:45 10° ESE
GEOS 3 Rocket 4.2 21:01:22 10° NE 21:06:28 57° ESE 21:11:37 10° SSW
Ariane H10 3.5 21:08:57 27° WSW 21:11:09 76° S 21:27:33 10° E
Cosmos 407 Rocket 4.3 21:09:28 10° N 21:14:35 54° ENE 21:19:37 10° SSE
Cosmos 1821 Rocket 4.4 21:08:38 10° N 21:14:58 71° E 21:21:17 10° S
Meteor 1-31 Rocket 3.4 21:17:05 10° NNE 21:20:45 56° ESE 21:24:28 10° S
H-2A R/B 3.6 21:20:23 10° NNW 21:23:31 28° WNW 21:25:24 18° SW
Cosmos 1833 Rocket 3.8 21:18:52 10° S 21:24:13 46° ESE 21:29:32 10° NNE
Atlas Centaur 2 4.2 21:24:34 10° SSW 21:31:48 34° SSE 21:39:18 10° E
Envisat 4.2 21:30:24 10° NNW 21:34:15 22° WNW 21:38:05 10° SW
Cosmos 2263 4.4 21:29:16 10° NNW 21:34:58 80° ENE 21:40:43 10° SSE
TSX-5 3.9 21:32:29 10° S 21:35:54 58° ESE 21:38:58 10° NNE
Cosmos 1140 Rocket 3.4 21:32:11 10° NNW 21:37:23 73° WSW 21:42:34 10° S
SWIFT 2.5 21:39:09 10° W 21:43:17 53° SSW 21:47:24 10° SE
Cosmos 2058 3.0 21:42:19 10° SSW 21:46:17 54° W 21:50:15 10° N
Cosmos 1633 4.1 21:44:43 10° SW 21:46:58 16° W 21:49:14 10° NW
Cosmos-2242 4.0 21:43:30 10° N 21:47:42 53° E 21:51:53 10° SSE
Meteor 1-27 4.3 21:43:50 10° NNW 21:49:25 61° W 21:54:57 10° S
CZ-2C R/B 3.9 21:44:37 10° NNW 21:49:46 36° WNW 21:54:44 10° SW
CZ-2C R/B 2.7 21:44:45 10° S 21:49:49 55° WSW 21:54:50 10° NNW
Delta 142 3.3 21:46:38 10° WNW 21:50:41 71° SSW 21:54:55 10° SE
Ariane H10-3 1.8 21:48:35 10° WNW 21:50:46 40° N 21:53:06 10° ENE
Spot 1 4.5 21:47:35 10° S 21:52:30 68° WSW 21:57:34 10° NNW
CZ-3B Rocket 3.6 21:39:45 10° WNW 21:53:48 50° N 21:57:57 10° E
Cosmos 1825 Rocket 4.3 21:51:26 10° SSW 21:55:24 32° W 21:59:23 10° NNW
FUSE 4.2 21:51:20 10° WNW 21:56:42 78° NNE 22:02:02 10° ESE
CZ-3C R/B 4.3 13:10:10 10° WSW 21:57:09 62° NNW 22:04:11 10° NE
ARIANE 5 R/B 4.0 21:42:00 10° W 22:15:31 60° SSW 22:21:09 10° ESE
